Weather History for KTDZ - July, 2013

Change the Weather History Date:

Thursday, July 4, 2013

  Actual Average (KTOL) Record (KTOL)
Temperature  
Mean Temperature 75 °F 74 °F  
Max Temperature 81 °F 85 °F 100 °F (2012)
Min Temperature 69 °F 62 °F 45 °F (1968)
Degree Days  
Heating Degree Days 0 0  
Month to date heating degree days 0  
Since 1 June heating degree days 35  
Since 1 July heating degree days 0  
Cooling Degree Days 10 9  
Month to date cooling degree days 34  
Year to date cooling degree days 257  
Since 1 June cooling degree days 204  
Growing Degree Days 25 (Base 50)    
Moisture  
Dew Point 68 °F    
Average Humidity 83    
Maximum Humidity 93    
Minimum Humidity 58    
Precipitation  
Precipitation 0.06 in 0.10 in 4.34 in (1969)
Month to date precipitation 0.41  
Year to date precipitation 17.35  
Snow  
Snow 0.00 in 0.00 in - ()
Month to date snowfall 0.0  
Since 1 June snowfall 0.0  
Since 1 July snowfall 0.0  
Snow Depth -    
Sea Level Pressure  
Sea Level Pressure 30.12 in    
Wind  
Wind Speed 5 mph (South)    
Max Wind Speed 14 mph    
Max Gust Speed -    
Visibility 8 miles    
Events Rain    
T = Trace of Precipitation, MM = Missing Value Source: NWS Daily Summary

Daily Weather History Graph

Daily Weather History Graph

Search for Another Location

Airport or City:

Trip Planner

Search our weather history database for the weather conditions in past years. The results will help you decide how hot, cold, wet, or windy it might be!

Date:

Astronomy

Jul. 04, 2013 Rise Set
Actual Time 6:05 AM EDT 9:11 PM EDT
Civil Twilight 5:31 AM EDT 9:44 PM EDT
Nautical Twilight 4:48 AM EDT 10:27 PM EDT
Astronomical Twilight 3:57 AM EDT 11:18 PM EDT
Moon 3:22 AM EDT (7/4) 6:13 PM EDT (7/4)
Length of Visible Light 16h 13m
Length of Day
15h 05m
Waning Crescent, 11% of the Moon is Illuminated
Jul 4
Waning Crescent
Jul 8
New
Jul 15
First Quarter
Jul 22
Full
Jul 29
Last Quarter

Hourly Weather History & Observations

Time (EDT) Temp. Heat Index Dew Point Humidity Pressure Visibility Wind Dir Wind Speed Gust Speed Precip Events Conditions
12:53 AM 73.0 °F - 66.0 °F 79% 30.09 in 10.0 mi Calm Calm - N/A   Mostly Cloudy
1:53 AM 72.0 °F - 66.9 °F 84% 30.09 in 10.0 mi South 4.6 mph - N/A   Mostly Cloudy
2:53 AM 72.0 °F - 69.1 °F 91% 30.09 in 9.0 mi SSE 9.2 mph - 0.00 in   Overcast
3:53 AM 71.1 °F - 68.0 °F 90% 30.10 in 8.0 mi South 6.9 mph - 0.00 in   Overcast
4:53 AM 70.0 °F - 68.0 °F 93% 30.10 in 6.0 mi South 5.8 mph - 0.03 in Rain Light Rain
5:53 AM 69.1 °F - 66.9 °F 93% 30.12 in 8.0 mi South 5.8 mph - 0.00 in   Scattered Clouds
6:53 AM 69.1 °F - 66.0 °F 90% 30.12 in 5.0 mi South 4.6 mph - N/A   Clear
7:53 AM 70.0 °F - 68.0 °F 93% 30.14 in 5.0 mi South 5.8 mph - N/A   Scattered Clouds
8:44 AM 71.6 °F - 68.0 °F 88% 30.16 in 6.0 mi South 5.8 mph - N/A   Mostly Cloudy
8:53 AM 72.0 °F - 69.1 °F 91% 30.15 in 6.0 mi SSW 5.8 mph - N/A   Scattered Clouds
9:53 AM 73.9 °F - 69.1 °F 85% 30.14 in 7.0 mi SSW 5.8 mph - N/A   Partly Cloudy
10:53 AM 75.9 °F - 69.1 °F 79% 30.14 in 9.0 mi South 3.5 mph - N/A   Mostly Cloudy
11:03 AM 75.2 °F - 68.0 °F 78% 30.15 in 9.0 mi SSW 5.8 mph - N/A   Mostly Cloudy
11:15 AM 75.2 °F - 66.2 °F 73% 30.16 in 9.0 mi WSW 5.8 mph - N/A   Mostly Cloudy
11:24 AM 75.2 °F - 68.0 °F 78% 30.16 in 9.0 mi Variable 3.5 mph - N/A   Mostly Cloudy
11:53 AM 77.0 °F - 66.9 °F 71% 30.14 in 9.0 mi WSW 5.8 mph - N/A   Mostly Cloudy
12:50 PM 78.8 °F - 66.2 °F 65% 30.15 in 10.0 mi SW 4.6 mph - N/A   Mostly Cloudy
12:53 PM 78.1 °F - 66.0 °F 66% 30.14 in 10.0 mi Variable 4.6 mph - N/A   Mostly Cloudy
1:53 PM 81.0 °F 83.0 °F 66.0 °F 60% 30.13 in 10.0 mi SW 9.2 mph - N/A   Mostly Cloudy
2:53 PM 81.0 °F 82.7 °F 64.9 °F 58% 30.12 in 10.0 mi South 4.6 mph - N/A   Scattered Clouds
3:53 PM 73.0 °F - 66.9 °F 81% 30.12 in 8.0 mi South 13.8 mph - 0.00 in Rain Light Rain
4:53 PM 73.0 °F - 69.1 °F 87% 30.13 in 7.0 mi South 6.9 mph - 0.03 in   Overcast
5:53 PM 73.0 °F - 70.0 °F 90% 30.11 in 8.0 mi South 8.1 mph - N/A   Overcast
6:53 PM 73.9 °F - 69.1 °F 85% 30.09 in 10.0 mi SSE 10.4 mph - N/A   Scattered Clouds
7:53 PM 73.0 °F - 69.1 °F 87% 30.10 in 10.0 mi SW 6.9 mph - N/A   Clear
8:53 PM 72.0 °F - 69.1 °F 91% 30.10 in 7.0 mi South 3.5 mph - N/A   Overcast
9:53 PM 71.1 °F - 68.0 °F 90% 30.10 in 9.0 mi South 6.9 mph - N/A   Partly Cloudy
10:53 PM 71.1 °F - 68.0 °F 90% 30.12 in 10.0 mi South 5.8 mph - N/A   Partly Cloudy
11:53 PM 71.1 °F - 68.0 °F 90% 30.11 in 10.0 mi SE 3.5 mph - N/A   Overcast